Location: Fuglau
(48.6333°N, 15.5500°E)
Time: 15:39:40
(UTC+00:00)

STARLINK-1024 - Pass Details

Date: 27 February 2020
Orbit: 548 x 551 km, 53.0° (Epoch: 28 March)

Event Time Altitude Azimuth Distance (km) Brightness Sun altitude
Rises 18:27:44 0° 270° (W) 2,716 8.7 -19.0°
Reaches altitude 10° 18:30:02 10° 276° (W) 1,823 7.5 -19.3°
Maximum altitude 18:34:03 48° 351° (N) 726 4.3 -20.0°
Enters shadow 18:35:13 36° 38° (NE) 876 4.4 -20.2°
